Regional Weather Roundup
Issued by NWS

Home | Current Version | Previous Version | Graphics & Text | Print | Product List | Glossary On
Versions: 1 2 3 4 5 6 7 8 9 10 11 12 13 14 15 16 17 18 19 20 21 22 23 24 25 26 27 28 29 30 31 32 33 34 35 36 37 38 39 40 41 42 43 44 45 46 47 48 49 50
000
ASUS43 KLSX 191607
RWRMO

WEATHER SUMMARY FOR MISSOURI
NATIONAL WEATHER SERVICE SPRINGFIELD MO
1100 AM CDT SAT AUG 19 2017

NOTE: "FAIR" INDICATES FEW OR NO CLOUDS BELOW 12,000 FEET WITH NO
       SIGNIFICANT WEATHER AND/OR OBSTRUCTIONS TO VISIBILITY.
       CURRENT SKY AND/OR WEATHER CONDITIONS ARE NOT AVAILABLE FOR
       CHILLICOTHE AND FARMINGTON.

MOZ001>031-035>038-043-044-053-054-191700-
...NORTHERN AND WESTERN MISSOURI...

CITY           SKY/WX    TMP DP  RH WIND       PRES   REMARKS
KANSAS CTY INT SUNNY     82  69  64 CALM      29.99R
KANSAS C DTWN  SUNNY     84  70  62 CALM      29.97S
LEE`S SUMMIT   SUNNY     84  70  62 VRB5      29.99R
ST JOSEPH      SUNNY     81  70  69 CALM      29.98S
CHILLICOTHE      N/A     82  70  66 CALM      29.98R
KIRKSVILLE     SUNNY     82  68  62 SW3       29.97S

$$
MOZ066>068-077>081-088>096-101>105-191700-
...SOUTHWEST MISSOURI...

CITY           SKY/WX    TMP DP  RH WIND       PRES   REMARKS
SPRINGFIELD    SUNNY     85  76  74 W9        30.00F HX  94
JOPLIN         CLOUDY    82  76  81 W8        30.01R
BRANSON        PTSUNNY   81  73  78 W7        30.04S

$$
MOZ032>034-039>042-045>050-055>058-069>072-191700-
...CENTRAL MISSOURI...

CITY           SKY/WX    TMP DP  RH WIND       PRES   REMARKS
COLUMBIA       SUNNY     82  70  66 CALM      29.98S
JEFFERSON CITY SUNNY     82  73  74 CALM      29.97S
ROLLA          SUNNY     82  72  71 CALM      30.01S
SEDALIA        SUNNY     84  75  74 CALM      30.00R HX  92
WHITEMAN AFB   SUNNY     82  76  82 CALM      29.97S HX  90
WARRENSBURG    SUNNY     81  70  69 CALM      29.98R
OSAGE BEACH    SUNNY     81  73  76 CALM      30.00R

$$
MOZ051-052-059>065-191700-
...EAST CENTRAL MISSOURI...

CITY           SKY/WX    TMP DP  RH WIND       PRES   REMARKS
ST LOUIS INTL  MOSUNNY   82  69  64 N5        29.97R
SPIRIT OF STL  MOSUNNY   81  70  69 S3        29.96R
ST CHARLES     SUNNY     80  70  71 VRB3      29.95S

$$
MOZ072>076-082>087-097>100-106>115-191700-
...SOUTH CENTRAL AND SOUTHEAST MISSOURI...

CITY           SKY/WX    TMP DP  RH WIND       PRES   REMARKS
CAPE GIRARDEAU SUNNY     85  71  63 CALM      29.96S HX  90
FARMINGTON     SUNNY     83  72  69 VRB3      30.00R
POPLAR BLUFF   SUNNY     86  74  67 W5        29.97S HX  94
WEST PLAINS    SUNNY     85  70  60 W6        30.03S

$$



USA.gov is the U.S. government's official web portal to all federal, state and local government web resources and services.